Date String (YYYY-MM-DD hh:mm:ss) UTC,Instrument flags,absolute air pressure of the measurement (hPa),sample flow rate (lpm),inlet stack bypass flow (lpm),air temperature of the measurement (°C),ambient temperature measured by the external sensor (°C),aerosol sample conditioner tube jacket temperature (°C),OPC LED temperature (°C),internal box temperature (°C),relative humidity of the measurement (%),span deviation,mass concentration of particles derived from Lorenz-Mie calculation of OPC scattering (μg/m³),mass concentration of particles derived from Lorenz-Mie calculation of OPC scattering (μg/m³),mass concentration of particles derived from Lorenz-Mie calculation of OPC scattering (μg/m³)
DateTimeUTC,F1_M11,P_M11,Q1_M11,Q2_M11,T1_M11,T2_M11,T3_M11,T4_M11,T5_M11,U1_M11,ZSPAN_M11,X0_M11,X2_M11,X1_M11
2024-04-17 11:00:00,SystemResetWarning,0826.0,5.00,000.00,026.0,025.1,000.0,034.5,027.8,013.4,0000.0,0004.74,0002.59,0001.67
2024-04-17 11:01:00,SystemResetWarning,0825.9,5.00,000.00,026.0,025.1,000.0,034.5,027.8,013.3,0000.0,0004.47,0002.50,0001.65
2024-04-17 11:02:00,SystemResetWarning,0825.8,5.01,000.00,026.0,025.1,000.0,034.5,027.8,013.4,0000.0,0004.64,0002.46,0001.66
2024-04-17 11:03:00,SystemResetWarning,0825.9,5.00,000.00,026.0,025.1,000.0,034.5,027.8,013.5,0000.0,0004.42,0002.42,0001.67
2024-04-17 11:04:00,SystemResetWarning,0825.9,5.00,000.00,026.0,025.1,000.0,034.5,027.8,014.0,0000.0,0004.70,0002.49,0001.68
2024-04-17 11:05:00,SystemResetWarning,0825.9,5.00,000.00,026.0,025.1,000.0,034.5,027.8,014.1,0000.0,0004.89,0002.52,0001.68
2024-04-17 11:06:00,SystemResetWarning,0825.9,5.00,000.00,025.9,025.1,000.0,034.5,027.8,014.2,0000.0,0004.99,0002.55,0001.70
2024-04-17 11:07:00,SystemResetWarning,0825.9,5.00,000.00,025.9,025.1,000.0,034.5,027.8,014.1,0000.0,0005.12,0002.58,0001.71
2024-04-17 11:08:00,SystemResetWarning,0826.0,5.00,000.00,025.9,025.0,000.0,034.5,027.8,014.0,0000.0,0005.16,0002.64,0001.74
2024-04-17 11:09:00,SystemResetWarning,0826.0,5.01,000.00,025.9,025.0,000.0,034.5,027.7,013.9,0000.0,0005.69,0002.67,0001.77
2024-04-17 11:10:00,SystemResetWarning,0826.0,4.99,000.00,025.9,025.1,000.0,034.5,027.7,014.1,0000.0,0006.02,0002.67,0001.78
2024-04-17 11:11:00,SystemResetWarning,0825.9,5.01,000.00,025.9,025.1,000.0,034.5,027.7,014.1,0000.0,0006.49,0002.64,0001.78
2024-04-17 11:12:00,SystemResetWarning,0825.9,5.00,000.00,025.9,025.1,000.0,034.4,027.7,013.7,0000.0,0006.69,0002.65,0001.79
2024-04-17 11:13:00,SystemResetWarning,0826.0,5.00,000.00,025.9,025.1,000.0,034.4,027.8,013.7,0000.0,0006.37,0002.67,0001.80
2024-04-17 11:14:00,SystemResetWarning,0826.0,5.01,000.00,025.9,025.1,000.0,034.4,027.7,014.0,0000.0,0006.42,0002.71,0001.80
2024-04-17 11:15:00,SystemResetWarning,0826.0,4.99,000.00,025.9,025.1,000.0,034.4,027.7,013.6,0000.0,0006.18,0002.66,0001.80
2024-04-17 11:16:00,SystemResetWarning,0826.0,5.00,000.00,025.9,025.1,000.0,034.4,027.8,013.6,0000.0,0006.34,0002.69,0001.80
2024-04-17 11:17:00,SystemResetWarning,0825.9,5.00,000.00,025.9,025.1,000.0,034.4,027.8,013.6,0000.0,0006.38,0002.70,0001.79
2024-04-17 11:18:00,SystemResetWarning,0825.9,4.99,000.00,025.9,025.1,000.0,034.4,027.8,013.5,0000.0,0006.17,0002.65,0001.79
2024-04-17 11:19:00,SystemResetWarning,0825.9,5.00,000.00,025.9,025.1,000.0,034.4,027.8,013.3,0000.0,0006.10,0002.62,0001.77
2024-04-17 11:20:00,SystemResetWarning,0825.9,5.00,000.00,025.9,025.1,000.0,034.4,027.8,013.4,0000.0,0005.63,0002.59,0001.76
2024-04-17 11:21:00,SystemResetWarning,0825.9,5.00,000.00,025.9,025.1,000.0,034.4,027.8,013.4,0000.0,0005.36,0002.61,0001.75
2024-04-17 11:22:00,SystemResetWarning,0825.9,5.00,000.00,025.9,025.1,000.0,034.4,027.8,013.4,0000.0,0004.73,0002.61,0001.75
2024-04-17 11:23:00,SystemResetWarning,0825.9,5.00,000.00,025.9,025.1,000.0,034.4,027.8,013.3,0000.0,0004.72,0002.66,0001.76
2024-04-17 11:24:00,SystemResetWarning,0826.0,5.02,000.00,025.9,025.1,000.0,034.4,027.8,013.4,0000.0,0004.79,0002.67,0001.76
2024-04-17 11:25:00,SystemResetWarning,0826.0,5.01,000.00,025.9,025.1,000.0,034.4,027.8,013.4,0000.0,0004.72,0002.64,0001.78
2024-04-17 11:26:00,SystemResetWarning,0825.9,4.99,000.00,025.9,025.1,000.0,034.4,027.8,013.5,0000.0,0005.79,0002.61,0001.77
2024-04-17 11:27:00,SystemResetWarning,0826.0,4.99,000.00,025.9,025.1,000.0,034.4,027.7,013.5,0000.0,0005.73,0002.62,0001.77
2024-04-17 11:28:00,SystemResetWarning,0826.0,5.01,000.00,025.9,025.1,000.0,034.4,027.7,013.5,0000.0,0005.64,0002.61,0001.77
2024-04-17 11:29:00,SystemResetWarning,0826.0,5.01,000.00,025.9,025.1,000.0,034.4,027.7,013.5,0000.0,0005.65,0002.63,0001.77
2024-04-17 11:30:00,SystemResetWarning,0826.0,4.99,000.00,025.9,025.1,000.0,034.4,027.7,013.5,0000.0,0006.18,0002.69,0001.78
2024-04-17 11:31:00,SystemResetWarning,0826.1,4.98,000.00,025.9,025.1,000.0,034.4,027.7,013.6,0000.0,0006.49,0002.74,0001.79
2024-04-17 11:32:00,SystemResetWarning,0826.1,5.01,000.00,025.9,025.1,000.0,034.4,027.7,013.8,0000.0,0006.54,0002.75,0001.80
2024-04-17 11:33:00,SystemResetWarning,0826.1,5.01,000.00,025.9,025.1,000.0,034.4,027.8,013.8,0000.0,0006.59,0002.76,0001.80
2024-04-17 11:34:00,SystemResetWarning,0826.0,5.00,000.00,025.9,025.1,000.0,034.4,027.7,013.7,0000.0,0006.45,0002.71,0001.79
2024-04-17 11:35:00,SystemResetWarning,0826.0,4.98,000.00,025.9,025.1,000.0,034.4,027.7,013.8,0000.0,0006.32,0002.67,0001.78
2024-04-17 11:36:00,SystemResetWarning,0826.0,5.00,000.00,025.9,025.1,000.0,034.4,027.7,013.8,0000.0,0006.28,0002.64,0001.76
2024-04-17 11:37:00,SystemResetWarning,0826.0,5.01,000.00,025.9,025.1,000.0,034.4,027.7,013.6,0000.0,0005.61,0002.69,0001.76
2024-04-17 11:38:00,SystemResetWarning,0826.1,5.00,000.00,025.9,025.1,000.0,034.4,027.7,013.6,0000.0,0005.20,0002.70,0001.77
2024-04-17 11:39:00,SystemResetWarning,0826.1,4.99,000.00,025.9,025.1,000.0,034.4,027.7,013.6,0000.0,0006.69,0002.71,0001.76
2024-04-17 11:40:00,SystemResetWarning,0826.0,4.99,000.00,025.9,025.1,000.0,034.4,027.7,013.5,0000.0,0007.13,0002.76,0001.75
2024-04-17 11:41:00,SystemResetWarning,0825.9,5.01,000.00,025.9,025.1,000.0,034.4,027.7,013.5,0000.0,0006.91,0002.71,0001.73
2024-04-17 11:42:00,SystemResetWarning,0826.0,5.01,000.00,025.9,025.1,000.0,034.4,027.7,013.3,0000.0,0006.51,0002.67,0001.72
2024-04-17 11:43:00,SystemResetWarning,0826.0,5.00,000.00,025.9,025.1,000.0,034.4,027.8,013.3,0000.0,0007.32,0002.68,0001.71
2024-04-17 11:44:00,SystemResetWarning,0826.1,4.99,000.00,025.9,025.1,000.0,034.4,027.8,013.5,0000.0,0007.52,0002.66,0001.70
2024-04-17 11:45:00,SystemResetWarning,0826.1,5.01,000.00,025.9,025.1,000.0,034.4,027.8,013.5,0000.0,0007.55,0002.67,0001.71
2024-04-17 11:46:00,SystemResetWarning,0826.2,5.01,000.00,025.9,025.1,000.0,034.4,027.8,013.8,0000.0,0007.79,0002.70,0001.70
2024-04-17 11:47:00,SystemResetWarning,0826.1,5.00,000.00,025.9,025.1,000.0,034.4,027.8,014.1,0000.0,0008.13,0002.77,0001.70
2024-04-17 11:48:00,SystemResetWarning,0826.0,4.99,000.00,025.9,025.1,000.0,034.4,027.7,013.8,0000.0,0008.13,0002.77,0001.71
2024-04-17 11:49:00,SystemResetWarning,0826.0,4.99,000.00,025.9,025.2,000.0,034.4,027.7,013.6,0000.0,0008.15,0002.70,0001.70
2024-04-17 11:50:00,SystemResetWarning,0826.0,4.99,000.00,025.9,025.2,000.0,034.4,027.7,013.7,0000.0,0008.28,0002.66,0001.71
2024-04-17 11:51:00,SystemResetWarning,0826.0,5.02,000.00,025.9,025.2,000.0,034.4,027.8,013.6,0000.0,0008.18,0002.66,0001.71
2024-04-17 11:52:00,SystemResetWarning,0826.0,4.99,000.00,025.9,025.2,000.0,034.4,027.7,013.6,0000.0,0008.26,0002.69,0001.71
2024-04-17 11:53:00,SystemResetWarning,0826.0,5.00,000.00,025.9,025.2,000.0,034.4,027.8,013.6,0000.0,0008.42,0002.72,0001.72
2024-04-17 11:54:00,SystemResetWarning,0826.0,5.00,000.00,025.9,025.2,000.0,034.4,027.7,013.7,0000.0,0008.81,0002.76,0001.73
2024-04-17 11:55:00,SystemResetWarning,0826.0,4.99,000.00,025.9,025.2,000.0,034.4,027.7,013.6,0000.0,0008.70,0002.82,0001.74
2024-04-17 11:56:00,SystemResetWarning,0826.0,5.01,000.00,025.9,025.2,000.0,034.4,027.7,013.6,0000.0,0008.69,0002.83,0001.76
2024-04-17 11:57:00,SystemResetWarning,0826.0,5.01,000.00,025.9,025.2,000.0,034.4,027.7,013.5,0000.0,0008.53,0002.78,0001.75
2024-04-17 11:58:00,SystemResetWarning,0826.0,5.00,000.00,025.9,025.2,000.0,034.4,027.7,013.6,0000.0,0008.16,0002.72,0001.74
2024-04-17 11:59:00,SystemResetWarning,0826.0,4.99,000.00,025.9,025.2,000.0,034.4,027.8,013.6,0000.0,0008.21,0002.68,0001.71
